EW5770 Weather Reports


Display with metric or nautical units.
time (UTC)temp
F
wind
direction
speed
MPH
gust
MPH
rain 1hr
in
rain 24hr
in
rain mn
in
humidity
%
barometer
mb
20260504210001 61 0 0.0 0.0 0.00 0.00 0.00 78 1016.7
20260504205010 61 0 0.0 0.0 0.00 0.00 0.00 78 1016.8
20260504204005 61 0 0.0 0.0 0.00 0.00 0.00 78 1016.9
20260504200002 62 0 0.0 0.0 0.00 0.00 0.00 80 1016.9
20260504195004 62 0 0.0 0.0 0.00 0.00 0.00 79 1016.9
20260504194009 62 0 0.0 0.0 0.00 0.00 0.00 78 1016.9
20260504193003 63 0 0.0 0.0 0.00 0.00 0.00 78 1016.9
20260504192002 63 0 0.0 0.0 0.00 0.00 0.00 77 1016.7
20260504191002 63 233 0.0 1.0 0.00 0.00 0.00 78 1016.7
20260504190002 63 233 0.0 1.0 0.00 0.00 0.00 77 1016.8
20260504185003 63 0 0.0 0.0 0.00 0.00 0.00 78 1016.6
20260504182006 64 0 0.0 0.0 0.00 0.00 0.00 77 1016.5
20260504181004 64 229 0.0 2.0 0.00 0.00 0.00 76 1016.4
20260504180006 64 218 0.0 4.0 0.00 0.00 0.00 75 1016.4
20260504175008 64 177 0.0 1.0 0.00 0.00 0.00 76 1016.2
20260504174003 64 176 0.0 1.0 0.00 0.00 0.00 75 1016.2
20260504173008 65 224 0.0 1.0 0.00 0.00 0.00 74 1016.2
20260504172003 65 245 1.0 1.0 0.00 0.00 0.00 72 1016.2
20260504171002 65 183 0.0 7.0 0.00 0.00 0.00 72 1016.3
20260504151006 67 216 3.0 15.0 0.00 0.00 0.00 60 1016.5
20260504082002 62 0 0.0 0.0 0.00 0.00 0.00 66 1018.6
20260504081002 62 0 0.0 0.0 0.00 0.00 0.00 66 1018.6
20260504045010 54 0 0.0 0.0 0.00 0.00 0.00 77 1017.9
20260504044008 53 0 0.0 0.0 0.00 0.00 0.00 77 1017.8
20260504043007 53 0 0.0 0.0 0.00 0.00 0.00 78 1017.8
20260504042004 53 0 0.0 0.0 0.00 0.00 0.00 78 1017.7
20260504040002 54 0 0.0 0.0 0.00 0.00 0.00 75 1017.6
20260504035008 54 0 0.0 0.0 0.00 0.00 0.00 76 1017.5
20260504034017 54 0 0.0 0.0 0.00 0.00 0.00 77 1017.6
20260504033011 53 0 0.0 0.0 0.00 0.00 0.00 78 1017.7
20260504032014 54 0 0.0 0.0 0.00 0.00 0.00 78 1017.7
20260504031009 53 0 0.0 0.0 0.00 0.00 0.00 78 1017.6
20260504030002 54 0 0.0 0.0 0.00 0.00 0.00 77 1017.7
20260504023008 53 0 0.0 0.0 0.00 0.00 0.00 80 1017.9
20260504021002 54 0 0.0 0.0 0.00 0.00 0.00 79 1017.8
20260504015004 54 0 0.0 0.0 0.00 0.00 0.00 75 1017.7
20260504014014 54 0 0.0 0.0 0.00 0.00 0.00 76 1017.7
20260504013007 54 0 0.0 0.0 0.00 0.00 0.00 77 1017.8
20260504012012 54 0 0.0 0.0 0.00 0.00 0.00 78 1017.9
20260504011010 53 0 0.0 0.0 0.00 0.00 0.00 80 1018.0
20260504010003 53 0 0.0 0.0 0.00 0.00 0.00 83 1018.1
20260504005014 53 0 0.0 0.0 0.00 0.00 0.00 79 1018.1
20260504004007 53 0 0.0 0.0 0.00 0.00 0.00 81 1018.2
20260504003010 53 46 0.0 3.0 0.00 0.00 0.00 80 1018.1
20260504002012 53 0 0.0 0.0 0.00 0.00 0.00 80 1018.1
20260504001014 53 0 0.0 0.0 0.00 0.00 0.00 82 1018.1
20260503235012 54 0 0.0 0.0 0.00 0.00 0.00 82 1018.3
20260503234004 54 0 0.0 0.0 0.00 0.00 0.00 80 1018.2
20260503231009 54 55 0.0 1.0 0.00 0.00 0.00 76 1018.4
20260503225020 54 0 0.0 0.0 0.00 0.00 0.00 80 1018.8
20260503224010 54 0 0.0 0.0 0.00 0.00 0.00 84 1018.9
20260503223008 54 0 0.0 0.0 0.00 0.00 0.00 79 1018.9
20260503222007 54 0 0.0 0.0 0.00 0.00 0.00 79 1019.0
20260503221013 54 0 0.0 0.0 0.00 0.00 0.00 80 1018.8
20260503215011 55 0 0.0 0.0 0.00 0.00 0.00 83 1018.9
20260503214004 55 0 0.0 0.0 0.00 0.00 0.00 81 1018.8
20260503213006 55 0 0.0 0.0 0.00 0.00 0.00 80 1018.9
20260503212008 55 0 0.0 0.0 0.00 0.00 0.00 82 1018.8